Location: Home
(42.5358°N, 72.7383°W)
Time: 10:32:35
(UTC-05:00)

Courier 1B - Pass Details

Date: 05 December 2021
Orbit: 962 x 1209 km, 28.3° (Epoch: 21 January)

Event Time Altitude Azimuth Distance (km) Brightness Sun altitude
Rises 18:40:56 0° 252° (WSW) 3,985 12.0 -25.6°
Reaches altitude 10° 18:44:24 10° 239° (WSW) 2,981 10.9 -26.2°
Maximum altitude 18:49:53 23° 190° (S) 2,097 9.3 -27.2°
Enters shadow 18:52:42 18° 159° (SSE) 2,320 9.3 -27.8°
Drops below altitude 10° 18:55:08 10° 141° (SE) 2,837 - -28.2°
Sets 18:58:21 0° 127° (SE) 3,748 - -28.8°
